Regional Weather Roundup
Issued by NWS Little Rock, AR

Home | Current Version | Previous Version | Graphics & Text | Print | Product List | Glossary On
Versions: 1 2 3 4 5 6 7 8 9 10 11 12 13 14 15 16 17 18 19 20 21 22 23 24 25 26 27 28 29 30 31 32 33 34 35 36 37 38 39 40 41 42 43 44 45 46 47 48 49 50
000
ASUS44 KLZK 251705
RWRLZK

WEATHER ROUNDUP FOR ARKANSAS
NATIONAL WEATHER SERVICE LITTLE ROCK AR
1200 PM CDT SAT MAR 25 2017

NOTE: "FAIR" INDICATES FEW OR NO CLOUDS BELOW 12,000 FEET WITH NO
SIGNIFICANT WEATHER AND/OR OBSTRUCTIONS TO VISIBILITY.

ARZ001-003-010-029-251800-
NORTHWEST ARKANSAS

CITY           SKY/WX    TMP DP  RH WIND       PRES   REMARKS
FAYETTEVILLE   CLOUDY    50  49  96 W12G18    29.89R
FORT SMITH     CLOUDY    53  47  79 W20G29    29.92R
HARRISON       CLOUDY    58  52  80 W7        29.82S
BENTONVILLE    CLOUDY    48  46  93 W9        29.89R
ROGERS         LGT RAIN  48  48 100 W12       29.88R FOG
SILOAM SPGS    CLOUDY    48  45  87 W9        29.89R
HIGHFILL       CLOUDY    49  47  93 W15       29.87R
SPRINGDALE     CLOUDY    50  50 100 W14       29.89R FOG
$$

ARZ004-005-016-251800-
NORTH CENTRAL ARKANSAS

CITY           SKY/WX    TMP DP  RH WIND       PRES   REMARKS
BATESVILLE     PTSUNNY   66  54  63 S10G22    29.85S
FLIPPIN        MOSUNNY   64  50  59 SW14      29.79S
MTN HOME       PTSUNNY   60  53  77 SW8       29.80S
$$

ARZ040-041-251800-
WEST CENTRAL ARKANSAS

CITY           SKY/WX    TMP DP  RH WIND       PRES   REMARKS
MENA           CLOUDY    61  55  82 W9        29.95R
MOUNT IDA      CLOUDY    64  49  57 VRB5      29.90S
$$

ARZ009-017-025-026-028-251800-
NORTHEAST ARKANSAS

CITY           SKY/WX    TMP DP  RH WIND       PRES   REMARKS
CORNING        CLOUDY    61  61 100 S16       29.89S
JONESBORO      CLOUDY    62  58  86 S17       29.89S
NEWPORT        CLOUDY    65  59  81 S18       29.86F
WALNUT RIDGE   CLOUDY    63  57  82 S18       29.87S
BLYTHEVILLE    CLOUDY    63  59  87 S16       29.93S
$$

ARZ022-023-033-042-044-251800-
CENTRAL ARKANSAS

CITY           SKY/WX    TMP DP  RH WIND       PRES   REMARKS
LITTLE ROCK    CLOUDY    64  52  64 SW14      29.90R
N LITTLE ROCK    N/A     63  53  70 SW9G20    29.90R
JACKSONVILLE   MOSUNNY   66  52  60 SW18      29.88R
CONWAY           N/A     64  52  63 SW16      29.89R
SEARCY         CLOUDY    68  54  60 SW15G24   29.88R
HOT SPRINGS    CLOUDY    63  51  65 W7        29.93R
RUSSELLVILLE   CLOUDY    60  52  74 SW9G18    29.88R
CLINTON        CLOUDY    61  52  72 SW13G21   29.87R
$$

ARZ036-251800-
EAST ARKANSAS

CITY           SKY/WX    TMP DP  RH WIND       PRES   REMARKS
WEST MEMPHIS   CLOUDY    63  60  90 S20G30    29.92F
$$

ARZ050-053-066-070-073-251800-
SOUTHWEST ARKANSAS

CITY           SKY/WX    TMP DP  RH WIND       PRES   REMARKS
ARKADELPHIA    CLOUDY    63  52  67 W10       29.95R
CAMDEN         SUNNY     68  48  49 W15G26    29.94F
TEXARKANA      CLOUDY    63  51  65 W12G18    29.98R
EL DORADO      MOSUNNY   67  51  56 SW14G21   29.96R
DE QUEEN       CLOUDY    63  54  72 W13       29.95R
$$

ARZ056-057-069-251800-
SOUTHEAST ARKANSAS

CITY           SKY/WX    TMP DP  RH WIND       PRES   REMARKS
PINE BLUFF     MOSUNNY   66  52  60 SW14      29.91S
STUTTGART      MOSUNNY   70  54  56 S16       29.91S
MONTICELLO       N/A     68  56  65 SW8       29.92F

$$





USA.gov is the U.S. government's official web portal to all federal, state and local government web resources and services.